| time (UTC) | temp F | wind direction | speed MPH | gust MPH | rain 1hr in | rain 24hr in | rain mn in | humidity % | barometer mb |
| 20260505004530 | 87 | 317 | 0.0 | 2.0 | 0.00 | 0.00 | 0.00 | 22 | 1006.2 |
| 20260505003024 | 87 | 308 | 0.0 | 3.0 | 0.00 | 0.00 | 0.00 | 21 | 1006.4 |
| 20260505001508 | 88 | 332 | 0.0 | 2.0 | 0.00 | 0.00 | 0.00 | 22 | 1006.5 |
| 20260505000027 | 89 | 81 | 0.0 | 2.0 | 0.00 | 0.00 | 0.00 | 22 | 1006.5 |
| 20260504234518 | 89 | 81 | 0.0 | 2.0 | 0.00 | 0.00 | 0.00 | 20 | 1006.5 |
| 20260504233012 | 89 | 296 | 1.0 | 3.0 | 0.00 | 0.00 | 0.00 | 21 | 1006.5 |
| 20260504231501 | 89 | 83 | 1.0 | 3.0 | 0.00 | 0.00 | 0.00 | 21 | 1006.6 |
| 20260504230006 | 89 | 5 | 0.0 | 3.0 | 0.00 | 0.00 | 0.00 | 21 | 1006.7 |
| 20260504224504 | 89 | 246 | 0.0 | 2.0 | 0.00 | 0.00 | 0.00 | 22 | 1006.8 |
| 20260504223003 | 88 | 69 | 0.0 | 3.0 | 0.00 | 0.00 | 0.00 | 22 | 1007.1 |
| 20260504221505 | 88 | 109 | 0.0 | 3.0 | 0.00 | 0.00 | 0.00 | 23 | 1007.2 |
| 20260504220003 | 88 | 315 | 1.0 | 3.0 | 0.00 | 0.00 | 0.00 | 22 | 1007.4 |
| 20260504214503 | 88 | 333 | 0.0 | 2.0 | 0.00 | 0.00 | 0.00 | 24 | 1007.6 |
| 20260504213009 | 87 | 309 | 0.0 | 2.0 | 0.00 | 0.00 | 0.00 | 24 | 1007.7 |
| 20260504211514 | 87 | 297 | 0.0 | 4.0 | 0.00 | 0.00 | 0.00 | 25 | 1007.9 |
| 20260504210008 | 86 | 333 | 1.0 | 4.0 | 0.00 | 0.00 | 0.00 | 24 | 1008.0 |
| 20260504204504 | 86 | 294 | 1.0 | 3.0 | 0.00 | 0.00 | 0.00 | 23 | 1008.2 |
| 20260504203008 | 86 | 325 | 0.0 | 3.0 | 0.00 | 0.00 | 0.00 | 28 | 1008.4 |
| 20260504201505 | 85 | 299 | 0.0 | 3.0 | 0.00 | 0.00 | 0.00 | 25 | 1008.5 |
| 20260504200007 | 85 | 319 | 0.0 | 2.0 | 0.00 | 0.00 | 0.00 | 27 | 1008.7 |
| 20260504194519 | 84 | 298 | 0.0 | 3.0 | 0.00 | 0.00 | 0.00 | 29 | 1008.7 |
| 20260504191504 | 83 | 290 | 0.0 | 2.0 | 0.00 | 0.00 | 0.00 | 29 | 1008.9 |
| 20260504190010 | 82 | 303 | 0.0 | 3.0 | 0.00 | 0.00 | 0.00 | 29 | 1009.0 |
| 20260504184511 | 81 | 352 | 0.0 | 3.0 | 0.00 | 0.00 | 0.00 | 30 | 1009.0 |
| 20260504183020 | 80 | 107 | 0.0 | 4.0 | 0.00 | 0.00 | 0.00 | 33 | 1009.1 |
| 20260504181515 | 79 | 340 | 0.0 | 4.0 | 0.00 | 0.00 | 0.00 | 32 | 1009.1 |
| 20260504180007 | 78 | 315 | 0.0 | 3.0 | 0.00 | 0.00 | 0.00 | 34 | 1009.1 |
| 20260504174516 | 78 | 311 | 0.0 | 3.0 | 0.00 | 0.00 | 0.00 | 33 | 1009.3 |
| 20260504173022 | 77 | 331 | 0.0 | 3.0 | 0.00 | 0.00 | 0.00 | 35 | 1009.3 |
| 20260504171503 | 76 | 298 | 0.0 | 2.0 | 0.00 | 0.00 | 0.00 | 37 | 1009.3 |
| 20260504081526 | 68 | 247 | 0.0 | 4.0 | 0.00 | 0.00 | 0.00 | 35 | 1008.3 |
| 20260504050012 | 72 | 172 | 1.0 | 5.0 | 0.00 | 0.00 | 0.00 | 30 | 1008.6 |
| 20260504044519 | 73 | 159 | 1.0 | 4.0 | 0.00 | 0.00 | 0.00 | 30 | 1008.5 |
| 20260504043005 | 73 | 173 | 2.0 | 7.0 | 0.00 | 0.00 | 0.00 | 30 | 1008.7 |
| 20260504041512 | 73 | 146 | 1.0 | 3.0 | 0.00 | 0.00 | 0.00 | 30 | 1008.6 |
| 20260504040016 | 74 | 134 | 1.0 | 5.0 | 0.00 | 0.00 | 0.00 | 30 | 1008.6 |
| 20260504034531 | 74 | 154 | 1.0 | 5.0 | 0.00 | 0.00 | 0.00 | 31 | 1008.5 |
| 20260504033011 | 76 | 121 | 1.0 | 3.0 | 0.00 | 0.00 | 0.00 | 30 | 1008.5 |
| 20260504031515 | 77 | 149 | 0.0 | 2.0 | 0.00 | 0.00 | 0.00 | 29 | 1008.5 |
| 20260504030006 | 78 | 61 | 0.0 | 1.0 | 0.00 | 0.00 | 0.00 | 26 | 1008.5 |
| 20260504024521 | 79 | 61 | 0.0 | 1.0 | 0.00 | 0.00 | 0.00 | 27 | 1008.5 |
| 20260504023022 | 81 | 61 | 0.0 | 0.0 | 0.00 | 0.00 | 0.00 | 26 | 1008.6 |
| 20260504021515 | 82 | 61 | 0.0 | 1.0 | 0.00 | 0.00 | 0.00 | 24 | 1008.6 |
| 20260504020020 | 82 | 100 | 0.0 | 0.0 | 0.00 | 0.00 | 0.00 | 24 | 1008.7 |
| 20260504014521 | 83 | 100 | 0.0 | 2.0 | 0.00 | 0.00 | 0.00 | 23 | 1008.9 |
| 20260504013012 | 84 | 78 | 0.0 | 2.0 | 0.00 | 0.00 | 0.00 | 23 | 1009.0 |
| 20260504011502 | 84 | 78 | 0.0 | 3.0 | 0.00 | 0.00 | 0.00 | 22 | 1009.1 |